Previsão horária em Bolshie Hutora

Hoje, 5 Março, Sexta-feira

Tempo Temperatura Precipitação Vento Pressão Humidade
00:00 -4°C° 0.2 mm 4 m/s 735 mmHg 96%
01:00 -4°C° 0.3 mm 4 m/s 735 mmHg 96%
02:00 -4°C° 0.3 mm 4 m/s 735 mmHg 96%
03:00 -3°C° 0 mm 2 m/s 735 mmHg 96%
04:00 -4°C° 0.3 mm 3 m/s 735 mmHg 96%
05:00 -5°C° 0.3 mm 3 m/s 735 mmHg 96%
06:00 -5°C° 0.3 mm 3 m/s 736 mmHg 96%
07:00 -5°C° 0.2 mm 3 m/s 736 mmHg 95%
08:00 -5°C° 0.2 mm 4 m/s 737 mmHg 94%
09:00 -5°C° 0.2 mm 4 m/s 738 mmHg 94%
10:00 -5°C° 0 mm 4 m/s 739 mmHg 92%
11:00 -5°C° 0 mm 4 m/s 739 mmHg 91%
12:00 -5°C° 0 mm 4 m/s 740 mmHg 89%
13:00 -5°C° 0 mm 4 m/s 741 mmHg 88%
14:00 -5°C° 0 mm 4 m/s 741 mmHg 86%
15:00 -5°C° 0 mm 3 m/s 742 mmHg 85%
16:00 -6°C° 0 mm 3 m/s 742 mmHg 86%
17:00 -7°C° 0 mm 3 m/s 743 mmHg 88%
18:00 -9°C° 0 mm 3 m/s 743 mmHg 89%
19:00 -10°C° 0 mm 3 m/s 744 mmHg 91%
20:00 -10°C° 0 mm 3 m/s 744 mmHg 93%
21:00 -12°C° 0 mm 3 m/s 745 mmHg 94%
22:00 -12°C° 0 mm 3 m/s 745 mmHg 95%
23:00 -13°C° 0 mm 3 m/s 745 mmHg 95%

Amanhã, 6 Março, Sábado

Tempo Temperatura Precipitação Vento Pressão Humidade
00:00 -13°C° 0 mm 3 m/s 745 mmHg 95%
01:00 -14°C° 0 mm 3 m/s 746 mmHg 95%
02:00 -14°C° 0 mm 3 m/s 746 mmHg 95%
03:00 -13°C° 0 mm 2 m/s 747 mmHg 95%
04:00 -14°C° 0 mm 2 m/s 747 mmHg 94%
05:00 -14°C° 0 mm 2 m/s 747 mmHg 93%
06:00 -13°C° 0 mm 1 m/s 747 mmHg 93%
07:00 -12°C° 0 mm 1 m/s 747 mmHg 92%
08:00 -11°C° 0 mm 1 m/s 747 mmHg 91%
09:00 -10°C° 0 mm 0 m/s 747 mmHg 90%
10:00 -9°C° 0 mm 0 m/s 747 mmHg 88%
11:00 -8°C° 0 mm 0 m/s 747 mmHg 85%
12:00 -7°C° 0 mm 0 m/s 747 mmHg 83%
13:00 -6°C° 0 mm 0 m/s 747 mmHg 82%
14:00 -6°C° 0 mm 0 m/s 746 mmHg 82%
15:00 -6°C° 0 mm 0 m/s 746 mmHg 81%
16:00 -7°C° 0 mm 0 m/s 746 mmHg 84%
17:00 -9°C° 0 mm 0 m/s 745 mmHg 87%
18:00 -11°C° 0 mm 0 m/s 745 mmHg 90%
19:00 -11°C° 0 mm 1 m/s 745 mmHg 89%
20:00 -11°C° 0 mm 1 m/s 746 mmHg 89%
21:00 -11°C° 0 mm 1 m/s 746 mmHg 89%
22:00 -13°C° 0 mm 2 m/s 746 mmHg 91%
23:00 -13°C° 0 mm 2 m/s 745 mmHg 93%

Depois de amanhã, 7 Março, Domingo

Tempo Temperatura Precipitação Vento Pressão Humidade
00:00 -13°C° 0 mm 2 m/s 745 mmHg 94%
01:00 -13°C° 0 mm 2 m/s 745 mmHg 95%
02:00 -13°C° 0 mm 2 m/s 745 mmHg 95%
03:00 -15°C° 0 mm 3 m/s 745 mmHg 96%
04:00 -16°C° 0 mm 3 m/s 745 mmHg 96%
05:00 -16°C° 0 mm 3 m/s 745 mmHg 96%
06:00 -17°C° 0 mm 3 m/s 745 mmHg 96%
07:00 -17°C° 0 mm 4 m/s 745 mmHg 95%
08:00 -16°C° 0 mm 4 m/s 745 mmHg 93%
09:00 -15°C° 0 mm 5 m/s 744 mmHg 92%
10:00 -14°C° 0 mm 6 m/s 743 mmHg 89%
11:00 -13°C° 0 mm 7 m/s 743 mmHg 87%
12:00 -12°C° 0 mm 7 m/s 742 mmHg 85%
13:00 -11°C° 0 mm 8 m/s 741 mmHg 84%
14:00 -10°C° 0 mm 9 m/s 740 mmHg 84%
15:00 -10°C° 0 mm 9 m/s 739 mmHg 84%
16:00 -10°C° 0.2 mm 9 m/s 738 mmHg 86%
17:00 -10°C° 0.2 mm 10 m/s 737 mmHg 89%
18:00 -10°C° 0.2 mm 10 m/s 736 mmHg 92%
19:00 -10°C° 0.5 mm 10 m/s 735 mmHg 92%
20:00 -9°C° 0.5 mm 10 m/s 734 mmHg 93%
21:00 -9°C° 0.5 mm 9 m/s 734 mmHg 93%
22:00 -10°C° 0.3 mm 9 m/s 734 mmHg 91%
23:00 -11°C° 0.3 mm 9 m/s 734 mmHg 88%

8 Março, Segunda-feira

Tempo Temperatura Precipitação Vento Pressão Humidade
00:00 -13°C° 0.3 mm 8 m/s 734 mmHg 86%
01:00 -14°C° 0 mm 7 m/s 735 mmHg 85%
02:00 -15°C° 0 mm 6 m/s 735 mmHg 85%
03:00 -15°C° 0 mm 5 m/s 736 mmHg 84%
04:00 -16°C° 0 mm 6 m/s 736 mmHg 84%
05:00 -16°C° 0 mm 6 m/s 736 mmHg 83%
06:00 -16°C° 0 mm 6 m/s 736 mmHg 83%
07:00 -15°C° 0 mm 7 m/s 735 mmHg 82%
08:00 -13°C° 0 mm 7 m/s 735 mmHg 80%
09:00 -12°C° 0 mm 8 m/s 735 mmHg 79%
10:00 -11°C° 0 mm 8 m/s 734 mmHg 82%
11:00 -10°C° 0 mm 8 m/s 734 mmHg 84%
12:00 -8°C° 0 mm 8 m/s 734 mmHg 86%
13:00 -9°C° 0.3 mm 9 m/s 734 mmHg 82%
14:00 -10°C° 0.3 mm 9 m/s 734 mmHg 77%
15:00 -10°C° 0.3 mm 9 m/s 734 mmHg 73%
16:00 -11°C° 0.1 mm 9 m/s 735 mmHg 77%
17:00 -12°C° 0.1 mm 9 m/s 736 mmHg 80%
18:00 -14°C° 0.1 mm 9 m/s 736 mmHg 84%
19:00 -15°C° 0 mm 8 m/s 737 mmHg 86%
20:00 -14°C° 0 mm 7 m/s 738 mmHg 88%
21:00 -15°C° 0 mm 6 m/s 739 mmHg 90%
22:00 -15°C° 0 mm 6 m/s 739 mmHg 91%
23:00 -15°C° 0 mm 6 m/s 740 mmHg 91%

9 Março, Terça-feira

Tempo Temperatura Precipitação Vento Pressão Humidade
00:00 -14°C° 0 mm 5 m/s 740 mmHg 92%
01:00 -15°C° 0 mm 5 m/s 741 mmHg 93%
02:00 -16°C° 0 mm 4 m/s 741 mmHg 94%
03:00 -17°C° 0 mm 4 m/s 742 mmHg 95%
04:00 -18°C° 0 mm 4 m/s 742 mmHg 96%
05:00 -18°C° 0 mm 3 m/s 742 mmHg 97%
06:00 -19°C° 0 mm 3 m/s 743 mmHg 98%
07:00 -18°C° 0 mm 3 m/s 743 mmHg 97%
08:00 -18°C° 0 mm 3 m/s 743 mmHg 96%
09:00 -17°C° 0 mm 3 m/s 744 mmHg 95%
10:00 -16°C° 0 mm 3 m/s 744 mmHg 93%
11:00 -15°C° 0 mm 3 m/s 744 mmHg 91%
12:00 -14°C° 0 mm 3 m/s 744 mmHg 89%
13:00 -14°C° 0 mm 3 m/s 744 mmHg 88%
14:00 -14°C° 0 mm 3 m/s 744 mmHg 87%
15:00 -13°C° 0 mm 3 m/s 744 mmHg 87%
16:00 -14°C° 0 mm 3 m/s 745 mmHg 89%
17:00 -15°C° 0 mm 3 m/s 745 mmHg 92%
18:00 -16°C° 0 mm 3 m/s 745 mmHg 94%
19:00 -17°C° 0 mm 3 m/s 745 mmHg 95%
20:00 -18°C° 0 mm 3 m/s 746 mmHg 95%
21:00 -19°C° 0 mm 3 m/s 746 mmHg 96%
22:00 -19°C° 0 mm 3 m/s 747 mmHg 97%
23:00 -21°C° 0 mm 3 m/s 747 mmHg 97%

10 Março, Quarta-feira

Tempo Temperatura Precipitação Vento Pressão Humidade
00:00 -21°C° 0 mm 3 m/s 747 mmHg 97%
01:00 -23°C° 0 mm 3 m/s 747 mmHg 98%
02:00 -24°C° 0 mm 3 m/s 747 mmHg 99%
03:00 -25°C° 0 mm 3 m/s 748 mmHg 99%
04:00 -26°C° 0 mm 3 m/s 748 mmHg 99%
05:00 -27°C° 0 mm 3 m/s 748 mmHg 99%
06:00 -29°C° 0 mm 3 m/s 749 mmHg 99%
07:00 -29°C° 0 mm 4 m/s 749 mmHg 98%
08:00 -29°C° 0 mm 4 m/s 749 mmHg 97%
09:00 -27°C° 0 mm 4 m/s 750 mmHg 95%
10:00 -26°C° 0 mm 4 m/s 750 mmHg 94%
11:00 -24°C° 0 mm 4 m/s 750 mmHg 92%
12:00 -22°C° 0 mm 3 m/s 750 mmHg 90%
13:00 -21°C° 0 mm 3 m/s 750 mmHg 89%
14:00 -21°C° 0 mm 3 m/s 750 mmHg 88%
15:00 -19°C° 0 mm 3 m/s 750 mmHg 87%
16:00 -19°C° 0 mm 2 m/s 750 mmHg 90%
17:00 -21°C° 0 mm 2 m/s 750 mmHg 93%
18:00 -20°C° 0 mm 1 m/s 750 mmHg 96%
19:00 -21°C° 0 mm 1 m/s 750 mmHg 97%
20:00 -22°C° 0 mm 1 m/s 751 mmHg 98%
21:00 -23°C° 0 mm 1 m/s 751 mmHg 99%
22:00 -23°C° 0 mm 1 m/s 751 mmHg 99%
23:00 -24°C° 0 mm 1 m/s 751 mmHg 99%
Mostrar mais